Date String (YYYY-MM-DD hh:mm:ss) UTC,Instrument flags,Ambient pressure (hPa),Sample flow (lpm),Bypass flow (lpm),Sample temperature (°C),Ambient temperature (°C),ASC tube jacket temperature (°C),LED temperature (°C),Box temperature (°C),Sample RH (%),Span deviation,Mass concentration (μg/m³),Mass concentration (μg/m³),Mass concentration (μg/m³)
DateTimeUTC,F1_M11,P_M11,Q1_M11,Q2_M11,T1_M11,T2_M11,T3_M11,T4_M11,T5_M11,U1_M11,ZSPAN_M11,X0_M11,X2_M11,X1_M11
2021-10-28 14:00:00,,0831.0,5.01,0.00,21.5,20.9,00.0,30.6,23.3,16.7,0000.0,0006.21,0002.19,0001.35
2021-10-28 14:01:00,,0831.0,4.98,0.00,21.5,20.9,00.0,30.6,23.2,16.7,0000.0,0006.11,0002.20,0001.36
2021-10-28 14:02:00,,0831.0,5.01,0.00,21.5,20.9,00.0,30.6,23.2,16.7,0000.0,0006.67,0002.19,0001.35
2021-10-28 14:03:00,,0831.0,4.99,0.00,21.5,20.9,00.0,30.6,23.2,16.7,0000.0,0007.43,0002.21,0001.34
2021-10-28 14:04:00,,0831.0,5.01,0.00,21.5,20.9,00.0,30.6,23.2,16.7,0000.0,0007.37,0002.23,0001.34
2021-10-28 14:05:00,,0831.0,4.99,0.00,21.5,20.9,00.0,30.6,23.2,16.7,0000.0,0006.29,0002.26,0001.33
2021-10-28 14:06:00,,0831.1,5.00,0.00,21.5,20.9,00.0,30.6,23.2,16.7,0000.0,0006.21,0002.19,0001.32
2021-10-28 14:07:00,,0831.0,5.00,0.00,21.5,20.9,00.0,30.6,23.2,16.6,0000.0,0006.27,0002.20,0001.31
2021-10-28 14:08:00,,0831.1,4.99,0.00,21.5,20.9,00.0,30.6,23.2,16.6,0000.0,0007.26,0002.21,0001.31
2021-10-28 14:09:00,,0831.2,4.99,0.00,21.4,20.8,00.0,30.6,23.2,16.6,0000.0,0007.63,0002.28,0001.32
2021-10-28 14:10:00,,0831.1,5.00,0.00,21.4,20.8,00.0,30.6,23.2,16.6,0000.0,0007.62,0002.29,0001.32
2021-10-28 14:11:00,,0831.1,5.00,0.00,21.4,20.8,00.0,30.6,23.2,16.6,0000.0,0008.03,0002.25,0001.33
2021-10-28 14:12:00,,0831.1,5.00,0.00,21.4,20.8,00.0,30.6,23.2,16.6,0000.0,0008.33,0002.24,0001.34
2021-10-28 14:13:00,,0831.1,5.01,0.00,21.4,20.8,00.0,30.6,23.2,16.5,0000.0,0008.07,0002.23,0001.34
2021-10-28 14:14:00,,0831.2,5.00,0.00,21.4,20.8,00.0,30.6,23.1,16.6,0000.0,0007.59,0002.25,0001.36
2021-10-28 14:15:00,,0831.2,5.00,0.00,21.4,20.7,00.0,30.5,23.1,16.6,0000.0,0007.80,0002.28,0001.36
2021-10-28 14:16:00,,0831.2,5.00,0.00,21.4,20.7,00.0,30.5,23.1,16.6,0000.0,0007.96,0002.31,0001.37
2021-10-28 14:17:00,,0831.2,4.99,0.00,21.4,20.7,00.0,30.5,23.1,16.6,0000.0,0008.72,0002.35,0001.39
2021-10-28 14:18:00,,0831.2,5.00,0.00,21.4,20.7,00.0,30.5,23.1,16.6,0000.0,0009.07,0002.32,0001.40
2021-10-28 14:19:00,,0831.2,5.00,0.00,21.4,20.8,00.0,30.5,23.1,16.6,0000.0,0009.02,0002.34,0001.40
2021-10-28 14:20:00,,0831.2,5.00,0.00,21.4,20.8,00.0,30.5,23.1,16.6,0000.0,0008.79,0002.34,0001.41
2021-10-28 14:21:00,,0831.4,5.01,0.00,21.4,20.8,00.0,30.5,23.1,16.6,0000.0,0008.70,0002.30,0001.43
2021-10-28 14:22:00,,0831.3,4.99,0.00,21.4,20.7,00.0,30.5,23.1,16.6,0000.0,0008.64,0002.38,0001.46
2021-10-28 14:23:00,,0831.4,4.99,0.00,21.4,20.7,00.0,30.5,23.1,16.5,0000.0,0009.56,0002.53,0001.49
2021-10-28 14:24:00,,0831.4,5.01,0.00,21.4,20.7,00.0,30.5,23.1,16.5,0000.0,0010.87,0002.59,0001.52
2021-10-28 14:25:00,,0831.4,4.99,0.00,21.4,20.7,00.0,30.5,23.1,16.6,0000.0,0011.16,0002.61,0001.54
2021-10-28 14:26:00,,0831.4,5.00,0.00,21.4,20.7,00.0,30.5,23.1,16.5,0000.0,0010.90,0002.57,0001.57
2021-10-28 14:27:00,,0831.4,4.98,0.00,21.4,20.7,00.0,30.5,23.1,16.6,0000.0,0010.31,0002.47,0001.59
2021-10-28 14:28:00,,0831.4,5.01,0.00,21.4,20.7,00.0,30.5,23.1,16.7,0000.0,0009.89,0002.52,0001.60
2021-10-28 14:29:00,,0831.4,5.01,0.00,21.4,20.7,00.0,30.5,23.1,16.7,0000.0,0009.94,0002.66,0001.62
2021-10-28 14:30:00,,0831.4,4.99,0.00,21.3,20.7,00.0,30.5,23.1,16.6,0000.0,0009.84,0002.70,0001.66
2021-10-28 14:31:00,,0831.3,5.00,0.00,21.4,20.7,00.0,30.5,23.1,16.7,0000.0,0009.93,0002.67,0001.67
2021-10-28 14:32:00,,0831.4,5.00,0.00,21.3,20.7,00.0,30.5,23.1,16.7,0000.0,0010.04,0002.69,0001.67
2021-10-28 14:33:00,,0831.4,5.00,0.00,21.4,21.0,00.0,30.5,23.2,16.6,0000.0,0009.94,0002.65,0001.67
2021-10-28 14:34:00,,0831.4,5.00,0.00,21.5,22.0,00.0,30.5,23.4,16.5,0000.0,0008.71,0002.61,0001.66
2021-10-28 14:35:00,,0831.4,5.01,0.00,21.7,23.0,00.0,30.6,23.8,16.4,0000.0,0007.45,0002.60,0001.67
2021-10-28 14:36:00,,0831.4,5.00,0.00,21.8,22.9,00.0,30.7,23.9,16.3,0000.0,0007.92,0002.76,0001.68
2021-10-28 14:37:00,,0831.4,5.00,0.00,21.8,22.6,00.0,30.7,23.8,16.3,0000.0,0008.16,0002.83,0001.68
2021-10-28 14:38:00,,0831.4,4.99,0.00,21.8,22.3,00.0,30.7,23.7,16.4,0000.0,0008.45,0002.90,0001.69
2021-10-28 14:39:00,,0831.4,5.01,0.00,21.8,22.0,00.0,30.7,23.6,16.4,0000.0,0008.26,0002.94,0001.70
2021-10-28 14:40:00,,0831.4,5.00,0.00,21.7,21.7,00.0,30.7,23.5,16.4,0000.0,0007.98,0002.94,0001.72
2021-10-28 14:41:00,,0831.5,4.99,0.00,21.7,21.6,00.0,30.7,23.4,16.4,0000.0,0007.66,0002.92,0001.72
2021-10-28 14:42:00,,0831.5,5.01,0.00,21.7,21.4,00.0,30.7,23.4,16.4,0000.0,0007.63,0002.99,0001.73
2021-10-28 14:43:00,,0831.5,4.99,0.00,21.7,21.2,00.0,30.7,23.4,16.6,0000.0,0007.72,0003.04,0001.75
2021-10-28 14:44:00,,0831.5,5.00,0.00,21.6,21.1,00.0,30.7,23.3,16.4,0000.0,0007.56,0003.09,0001.78
2021-10-28 14:45:00,,0831.6,5.02,0.00,21.6,21.0,00.0,30.7,23.3,16.6,0000.0,0007.52,0003.10,0001.80
2021-10-28 14:46:00,,0831.5,4.99,0.00,21.5,20.9,00.0,30.7,23.2,16.7,0000.0,0008.15,0003.14,0001.81
2021-10-28 14:47:00,,0831.5,5.01,0.00,21.5,20.9,00.0,30.7,23.2,16.6,0000.0,0009.34,0003.09,0001.81
2021-10-28 14:48:00,,0831.6,5.00,0.00,21.5,20.8,00.0,30.7,23.1,16.6,0000.0,0009.41,0003.10,0001.82
2021-10-28 14:49:00,,0831.7,5.01,0.00,21.5,20.7,00.0,30.7,23.1,16.6,0000.0,0009.86,0003.15,0001.83
2021-10-28 14:50:00,,0831.6,5.00,0.00,21.4,20.7,00.0,30.6,23.1,16.7,0000.0,0010.13,0003.16,0001.81
2021-10-28 14:51:00,,0831.6,5.00,0.00,21.4,20.6,00.0,30.6,23.0,16.9,0000.0,0010.19,0003.14,0001.80
2021-10-28 14:52:00,,0831.6,5.00,0.00,21.4,20.6,00.0,30.6,23.0,16.9,0000.0,0010.25,0003.17,0001.79
2021-10-28 14:53:00,,0831.6,5.00,0.00,21.4,20.6,00.0,30.6,23.0,17.0,0000.0,0010.45,0003.20,0001.79
2021-10-28 14:54:00,,0831.7,5.02,0.00,21.3,20.6,00.0,30.6,23.0,16.8,0000.0,0010.74,0003.20,0001.76
2021-10-28 14:55:00,,0831.7,4.99,0.00,21.3,20.6,00.0,30.6,23.0,16.9,0000.0,0010.92,0003.17,0001.73
2021-10-28 14:56:00,,0831.7,5.00,0.00,21.3,20.6,00.0,30.5,23.0,16.7,0000.0,0012.14,0003.17,0001.68
2021-10-28 14:57:00,,0831.7,5.01,0.00,21.3,20.6,00.0,30.5,23.0,16.5,0000.0,0012.66,0003.13,0001.64
2021-10-28 14:58:00,,0831.8,4.99,0.00,21.3,20.6,00.0,30.5,23.0,16.5,0000.0,0011.07,0003.08,0001.60
2021-10-28 14:59:00,,0831.7,4.99,0.00,21.3,20.5,00.0,30.5,22.9,16.6,0000.0,0010.75,0003.01,0001.56
